| time (UTC) | temp F | wind direction | speed MPH | gust MPH | rain 1hr in | rain 24hr in | rain mn in | humidity % | barometer mb |
| 20260508052812 | 72 | 61 | 0.0 | 0.0 | 0.00 | 0.01 | 0.00 | 81 | 1014.0 |
| 20260508052307 | 72 | 83 | 0.0 | 2.0 | 0.00 | 0.01 | 0.00 | 80 | 1014.0 |
| 20260508051823 | 72 | 84 | 0.0 | 3.0 | 0.00 | 0.01 | 0.00 | 80 | 1013.9 |
| 20260508051338 | 72 | 140 | 0.0 | 3.0 | 0.00 | 0.01 | 0.00 | 80 | 1013.9 |
| 20260508050835 | 72 | 79 | 0.0 | 2.0 | 0.00 | 0.01 | 0.00 | 80 | 1014.0 |
| 20260508050310 | 72 | 27 | 0.0 | 2.0 | 0.00 | 0.01 | 0.00 | 80 | 1014.1 |
| 20260508045807 | 72 | 50 | 0.0 | 2.0 | 0.00 | 0.01 | 0.00 | 80 | 1014.2 |
| 20260508045306 | 72 | 50 | 0.0 | 2.0 | 0.00 | 0.01 | 0.00 | 80 | 1014.2 |
| 20260508044821 | 72 | 46 | 0.0 | 4.0 | 0.00 | 0.01 | 0.00 | 80 | 1014.1 |
| 20260508044316 | 72 | 355 | 0.0 | 4.0 | 0.00 | 0.01 | 0.00 | 80 | 1014.2 |
| 20260508043812 | 72 | 329 | 0.0 | 1.0 | 0.00 | 0.01 | 0.00 | 80 | 1014.2 |
| 20260508043309 | 72 | 87 | 0.0 | 4.0 | 0.00 | 0.01 | 0.00 | 80 | 1014.3 |
| 20260508042805 | 72 | 22 | 1.0 | 4.0 | 0.00 | 0.01 | 0.00 | 80 | 1014.3 |
| 20260508042301 | 72 | 9 | 1.0 | 4.0 | 0.00 | 0.01 | 0.00 | 80 | 1014.2 |
| 20260508041819 | 72 | 86 | 0.0 | 4.0 | 0.00 | 0.01 | 0.00 | 80 | 1014.3 |
| 20260508041315 | 72 | 46 | 1.0 | 3.0 | 0.00 | 0.01 | 0.00 | 80 | 1014.3 |
| 20260508040811 | 73 | 9 | 0.0 | 2.0 | 0.00 | 0.01 | 0.00 | 80 | 1014.5 |
| 20260508040308 | 73 | 44 | 0.0 | 3.0 | 0.00 | 0.01 | 0.00 | 80 | 1014.1 |
| 20260508035852 | 73 | 13 | 0.0 | 4.0 | 0.00 | 0.01 | 0.00 | 80 | 1014.4 |
| 20260508035306 | 73 | 24 | 0.0 | 3.0 | 0.00 | 0.01 | 0.00 | 79 | 1014.7 |
| 20260508034819 | 73 | 22 | 0.0 | 2.0 | 0.00 | 0.01 | 0.00 | 79 | 1014.7 |
| 20260508034316 | 73 | 23 | 0.0 | 3.0 | 0.00 | 0.01 | 0.00 | 79 | 1014.6 |
| 20260508033813 | 73 | 28 | 0.0 | 6.0 | 0.00 | 0.01 | 0.00 | 79 | 1014.5 |
| 20260508033311 | 73 | 24 | 0.0 | 6.0 | 0.00 | 0.01 | 0.00 | 79 | 1014.5 |
| 20260508032807 | 74 | 24 | 1.0 | 3.0 | 0.00 | 0.01 | 0.00 | 78 | 1014.5 |
| 20260508032306 | 74 | 92 | 0.0 | 3.0 | 0.00 | 0.01 | 0.00 | 79 | 1014.5 |
| 20260508031821 | 74 | 316 | 0.0 | 2.0 | 0.00 | 0.01 | 0.00 | 78 | 1014.6 |
| 20260508031315 | 74 | 77 | 0.0 | 4.0 | 0.00 | 0.01 | 0.00 | 78 | 1014.8 |
| 20260508030813 | 74 | 19 | 0.0 | 4.0 | 0.00 | 0.01 | 0.00 | 78 | 1014.7 |
| 20260508030310 | 74 | 22 | 0.0 | 5.0 | 0.00 | 0.01 | 0.00 | 78 | 1014.5 |
| 20260508025805 | 74 | 360 | 1.0 | 5.0 | 0.00 | 0.01 | 0.00 | 78 | 1014.1 |
| 20260508025317 | 74 | 42 | 0.0 | 3.0 | 0.00 | 0.01 | 0.00 | 77 | 1014.1 |
| 20260508024834 | 74 | 27 | 0.0 | 4.0 | 0.00 | 0.01 | 0.00 | 77 | 1014.3 |
| 20260508024308 | 75 | 40 | 0.0 | 5.0 | 0.00 | 0.01 | 0.00 | 76 | 1014.3 |
| 20260508023825 | 75 | 26 | 0.0 | 5.0 | 0.00 | 0.01 | 0.00 | 76 | 1014.3 |
| 20260508023342 | 75 | 19 | 1.0 | 6.0 | 0.00 | 0.01 | 0.00 | 77 | 1014.2 |
| 20260508022817 | 75 | 25 | 2.0 | 6.0 | 0.00 | 0.01 | 0.00 | 76 | 1014.2 |
| 20260508022313 | 75 | 360 | 0.0 | 5.0 | 0.00 | 0.01 | 0.00 | 76 | 1014.1 |
| 20260508021810 | 75 | 5 | 1.0 | 4.0 | 0.00 | 0.01 | 0.00 | 76 | 1013.9 |
| 20260508021307 | 75 | 34 | 1.0 | 4.0 | 0.00 | 0.01 | 0.00 | 76 | 1014.0 |
| 20260508020804 | 75 | 25 | 0.0 | 6.0 | 0.00 | 0.01 | 0.00 | 77 | 1014.1 |
| 20260508020321 | 75 | 9 | 0.0 | 6.0 | 0.00 | 0.01 | 0.00 | 77 | 1014.0 |
| 20260508015818 | 75 | 355 | 1.0 | 6.0 | 0.00 | 0.01 | 0.00 | 77 | 1013.9 |
| 20260508015314 | 75 | 28 | 1.0 | 6.0 | 0.00 | 0.01 | 0.00 | 77 | 1013.5 |
| 20260508014810 | 76 | 45 | 1.0 | 3.0 | 0.00 | 0.01 | 0.00 | 77 | 1013.5 |
| 20260508014305 | 76 | 11 | 0.0 | 2.0 | 0.00 | 0.01 | 0.00 | 77 | 1013.6 |
| 20260508013820 | 76 | 5 | 0.0 | 2.0 | 0.00 | 0.01 | 0.00 | 77 | 1013.7 |
| 20260508013316 | 76 | 5 | 1.0 | 3.0 | 0.00 | 0.01 | 0.00 | 77 | 1013.6 |
| 20260508012813 | 75 | 18 | 0.0 | 4.0 | 0.00 | 0.01 | 0.00 | 77 | 1013.7 |
| 20260508011816 | 75 | 24 | 0.0 | 3.0 | 0.00 | 0.01 | 0.00 | 78 | 1013.5 |
| 20260508011311 | 75 | 30 | 1.0 | 3.0 | 0.00 | 0.01 | 0.00 | 77 | 1013.3 |
| 20260508010807 | 75 | 29 | 0.0 | 1.0 | 0.00 | 0.01 | 0.00 | 77 | 1013.4 |
| 20260508010305 | 75 | 29 | 0.0 | 2.0 | 0.00 | 0.01 | 0.00 | 78 | 1013.3 |
| 20260508005821 | 75 | 29 | 1.0 | 2.0 | 0.00 | 0.01 | 0.00 | 78 | 1013.2 |
| 20260508005317 | 75 | 52 | 0.0 | 2.0 | 0.00 | 0.01 | 0.00 | 79 | 1013.1 |
| 20260508004811 | 75 | 71 | 0.0 | 1.0 | 0.00 | 0.01 | 0.00 | 80 | 1013.0 |
| 20260508004306 | 75 | 71 | 0.0 | 1.0 | 0.00 | 0.01 | 0.00 | 79 | 1012.9 |
| 20260508003802 | 75 | 71 | 0.0 | 1.0 | 0.00 | 0.01 | 0.00 | 79 | 1013.0 |
| 20260508003318 | 75 | 71 | 0.0 | 0.0 | 0.00 | 0.01 | 0.00 | 79 | 1013.0 |
| 20260508002816 | 75 | 72 | 0.0 | 0.0 | 0.00 | 0.01 | 0.00 | 79 | 1013.0 |
| 20260508002312 | 75 | 71 | 0.0 | 0.0 | 0.00 | 0.01 | 0.00 | 79 | 1013.0 |
| 20260508001809 | 75 | 72 | 0.0 | 0.0 | 0.00 | 0.01 | 0.00 | 79 | 1013.0 |
| 20260508001324 | 76 | 72 | 0.0 | 0.0 | 0.00 | 0.01 | 0.00 | 79 | 1013.0 |
| 20260508000841 | 76 | 71 | 0.0 | 0.0 | 0.00 | 0.01 | 0.00 | 79 | 1012.9 |
| 20260508000317 | 76 | 71 | 0.0 | 0.0 | 0.00 | 0.01 | 0.00 | 78 | 1013.0 |
| 20260507235812 | 76 | 71 | 0.0 | 0.0 | 0.00 | 0.01 | 0.00 | 78 | 1012.9 |
| 20260507235309 | 76 | 71 | 0.0 | 0.0 | 0.00 | 0.01 | 0.00 | 78 | 1012.9 |
| 20260507234805 | 76 | 71 | 0.0 | 0.0 | 0.00 | 0.01 | 0.00 | 78 | 1012.9 |
| 20260507234322 | 75 | 320 | 0.0 | 0.0 | 0.00 | 0.01 | 0.00 | 78 | 1013.0 |
| 20260507233838 | 75 | 320 | 0.0 | 0.0 | 0.00 | 0.01 | 0.00 | 78 | 1012.9 |
| 20260507233306 | 75 | 320 | 0.0 | 0.0 | 0.00 | 0.01 | 0.00 | 77 | 1012.8 |
| 20260507232803 | 76 | 320 | 0.0 | 0.0 | 0.00 | 0.01 | 0.00 | 77 | 1013.0 |
| 20260507232319 | 76 | 320 | 0.0 | 0.0 | 0.00 | 0.01 | 0.00 | 77 | 1013.0 |
| 20260507231814 | 76 | 320 | 0.0 | 0.0 | 0.00 | 0.01 | 0.00 | 77 | 1013.0 |
| 20260507231311 | 76 | 320 | 0.0 | 0.0 | 0.00 | 0.01 | 0.00 | 76 | 1013.0 |
| 20260507230807 | 76 | 320 | 0.0 | 0.0 | 0.00 | 0.01 | 0.00 | 76 | 1013.1 |
| 20260507230345 | 76 | 320 | 0.0 | 0.0 | 0.00 | 0.01 | 0.00 | 76 | 1013.1 |
| 20260507225840 | 76 | 320 | 0.0 | 0.0 | 0.00 | 0.01 | 0.00 | 76 | 1013.1 |
| 20260507225337 | 76 | 320 | 0.0 | 0.0 | 0.00 | 0.01 | 0.00 | 76 | 1013.1 |
| 20260507224813 | 76 | 309 | 0.0 | 0.0 | 0.00 | 0.01 | 0.00 | 75 | 1013.1 |
| 20260507224308 | 77 | 293 | 0.0 | 1.0 | 0.00 | 0.01 | 0.00 | 74 | 1012.9 |
| 20260507223825 | 77 | 293 | 0.0 | 1.0 | 0.00 | 0.01 | 0.00 | 74 | 1012.9 |
| 20260507223320 | 77 | 302 | 0.0 | 0.0 | 0.00 | 0.01 | 0.00 | 73 | 1012.9 |
| 20260507222905 | 77 | 302 | 0.0 | 0.0 | 0.00 | 0.01 | 0.00 | 72 | 1012.8 |
| 20260507222312 | 78 | 302 | 0.0 | 0.0 | 0.00 | 0.01 | 0.00 | 73 | 1012.8 |
| 20260507221808 | 78 | 302 | 0.0 | 0.0 | 0.00 | 0.01 | 0.00 | 72 | 1012.9 |
| 20260507221323 | 78 | 302 | 0.0 | 0.0 | 0.00 | 0.01 | 0.00 | 71 | 1012.8 |
| 20260507220839 | 78 | 324 | 0.0 | 0.0 | 0.00 | 0.01 | 0.00 | 72 | 1012.7 |
| 20260507220314 | 78 | 324 | 0.0 | 0.0 | 0.00 | 0.01 | 0.00 | 72 | 1012.7 |
| 20260507215811 | 78 | 324 | 0.0 | 0.0 | 0.00 | 0.01 | 0.00 | 72 | 1012.6 |
| 20260507215308 | 78 | 324 | 0.0 | 0.0 | 0.00 | 0.01 | 0.00 | 72 | 1012.5 |
| 20260507214825 | 78 | 324 | 0.0 | 0.0 | 0.00 | 0.01 | 0.00 | 72 | 1012.7 |
| 20260507214341 | 78 | 324 | 0.0 | 0.0 | 0.00 | 0.01 | 0.00 | 72 | 1012.7 |
| 20260507213816 | 78 | 12 | 0.0 | 0.0 | 0.00 | 0.01 | 0.00 | 73 | 1012.6 |
| 20260507213328 | 77 | 43 | 0.0 | 0.0 | 0.00 | 0.01 | 0.00 | 74 | 1012.6 |
| 20260507212822 | 77 | 43 | 0.0 | 0.0 | 0.00 | 0.01 | 0.00 | 75 | 1012.6 |
| 20260507212318 | 76 | 43 | 0.0 | 0.0 | 0.00 | 0.01 | 0.00 | 74 | 1012.7 |
| 20260507211813 | 76 | 43 | 0.0 | 0.0 | 0.00 | 0.01 | 0.00 | 76 | 1012.8 |
| 20260507211328 | 75 | 43 | 0.0 | 0.0 | 0.00 | 0.01 | 0.00 | 77 | 1012.6 |
| 20260507210823 | 75 | 298 | 0.0 | 0.0 | 0.00 | 0.01 | 0.00 | 77 | 1012.5 |
| 20260507210339 | 75 | 298 | 0.0 | 0.0 | 0.00 | 0.01 | 0.00 | 77 | 1012.8 |
| 20260507205813 | 74 | 298 | 0.0 | 0.0 | 0.00 | 0.01 | 0.00 | 78 | 1012.9 |
| 20260507205309 | 74 | 298 | 0.0 | 0.0 | 0.00 | 0.01 | 0.00 | 77 | 1012.9 |
| 20260507204805 | 74 | 298 | 0.0 | 0.0 | 0.00 | 0.01 | 0.00 | 79 | 1012.8 |
| 20260507204302 | 74 | 298 | 0.0 | 0.0 | 0.00 | 0.01 | 0.00 | 78 | 1012.9 |
| 20260507203818 | 74 | 298 | 0.0 | 0.0 | 0.00 | 0.01 | 0.00 | 78 | 1012.8 |
| 20260507203314 | 74 | 298 | 0.0 | 0.0 | 0.00 | 0.01 | 0.00 | 78 | 1012.9 |
| 20260507202812 | 74 | 298 | 0.0 | 1.0 | 0.00 | 0.01 | 0.00 | 79 | 1012.9 |
| 20260507202309 | 74 | 298 | 0.0 | 3.0 | 0.00 | 0.01 | 0.00 | 79 | 1012.9 |
| 20260507201803 | 74 | 298 | 1.0 | 3.0 | 0.00 | 0.01 | 0.00 | 78 | 1013.0 |
| 20260507201321 | 74 | 297 | 0.0 | 3.0 | 0.00 | 0.01 | 0.00 | 79 | 1013.0 |
| 20260507200816 | 74 | 308 | 1.0 | 3.0 | 0.00 | 0.01 | 0.00 | 78 | 1013.0 |
| 20260507200312 | 74 | 279 | 0.0 | 1.0 | 0.00 | 0.01 | 0.00 | 79 | 1013.0 |
| 20260507195808 | 74 | 279 | 0.0 | 4.0 | 0.00 | 0.01 | 0.00 | 78 | 1013.0 |
| 20260507195324 | 74 | 279 | 0.0 | 4.0 | 0.00 | 0.01 | 0.00 | 78 | 1013.1 |
| 20260507194839 | 74 | 311 | 0.0 | 6.0 | 0.00 | 0.01 | 0.00 | 78 | 1013.1 |
| 20260507194315 | 74 | 314 | 1.0 | 6.0 | 0.00 | 0.01 | 0.00 | 77 | 1013.2 |
| 20260507193812 | 74 | 351 | 0.0 | 1.0 | 0.00 | 0.01 | 0.00 | 78 | 1013.1 |
| 20260507193308 | 74 | 17 | 0.0 | 0.0 | 0.00 | 0.01 | 0.00 | 78 | 1013.1 |
| 20260507192804 | 74 | 17 | 0.0 | 0.0 | 0.00 | 0.01 | 0.00 | 78 | 1013.2 |
| 20260507192320 | 74 | 17 | 0.0 | 0.0 | 0.00 | 0.01 | 0.00 | 78 | 1013.3 |
| 20260507191835 | 74 | 15 | 0.0 | 3.0 | 0.00 | 0.01 | 0.00 | 78 | 1013.3 |
| 20260507191330 | 74 | 295 | 0.0 | 3.0 | 0.00 | 0.01 | 0.00 | 78 | 1013.4 |
| 20260507190806 | 74 | 334 | 0.0 | 0.0 | 0.00 | 0.01 | 0.00 | 77 | 1013.5 |
| 20260507190303 | 74 | 360 | 0.0 | 0.0 | 0.00 | 0.01 | 0.00 | 77 | 1013.4 |
| 20260507185820 | 74 | 311 | 0.0 | 2.0 | 0.00 | 0.01 | 0.00 | 77 | 1013.4 |
| 20260507185333 | 74 | 311 | 0.0 | 2.0 | 0.00 | 0.01 | 0.00 | 77 | 1013.5 |
| 20260507184808 | 75 | 27 | 0.0 | 1.0 | 0.00 | 0.01 | 0.00 | 77 | 1013.4 |
| 20260507184323 | 75 | 32 | 0.0 | 2.0 | 0.00 | 0.01 | 0.00 | 76 | 1013.5 |
| 20260507183841 | 75 | 32 | 0.0 | 3.0 | 0.00 | 0.01 | 0.00 | 77 | 1013.7 |
| 20260507183317 | 75 | 34 | 0.0 | 1.0 | 0.00 | 0.01 | 0.00 | 78 | 1013.6 |
| 20260507182833 | 75 | 313 | 0.0 | 2.0 | 0.00 | 0.01 | 0.00 | 78 | 1013.6 |
| 20260507182308 | 74 | 312 | 0.0 | 3.0 | 0.00 | 0.01 | 0.00 | 78 | 1013.8 |
| 20260507181805 | 74 | 294 | 0.0 | 5.0 | 0.00 | 0.01 | 0.00 | 78 | 1013.9 |
| 20260507181321 | 75 | 355 | 1.0 | 5.0 | 0.00 | 0.01 | 0.00 | 78 | 1014.0 |
| 20260507180815 | 75 | 279 | 1.0 | 4.0 | 0.00 | 0.01 | 0.00 | 79 | 1014.1 |
| 20260507180310 | 74 | 321 | 1.0 | 4.0 | 0.00 | 0.01 | 0.00 | 80 | 1014.0 |
| 20260507175806 | 73 | 329 | 1.0 | 3.0 | 0.00 | 0.01 | 0.00 | 81 | 1014.1 |
| 20260507175306 | 73 | 294 | 0.0 | 3.0 | 0.00 | 0.01 | 0.00 | 84 | 1014.1 |
| 20260507174844 | 72 | 43 | 0.0 | 4.0 | 0.00 | 0.01 | 0.00 | 86 | 1014.1 |
| 20260507174340 | 71 | 298 | 1.0 | 4.0 | 0.00 | 0.01 | 0.00 | 85 | 1014.1 |
| 20260507173814 | 71 | 279 | 1.0 | 4.0 | 0.00 | 0.01 | 0.00 | 86 | 1014.0 |
| 20260507173310 | 71 | 328 | 0.0 | 3.0 | 0.00 | 0.01 | 0.00 | 87 | 1014.0 |
| 20260507172807 | 71 | 17 | 0.0 | 4.0 | 0.00 | 0.01 | 0.00 | 87 | 1014.0 |
| 20260507172307 | 71 | 37 | 1.0 | 4.0 | 0.00 | 0.01 | 0.00 | 87 | 1014.2 |
| 20260507171819 | 71 | 38 | 1.0 | 5.0 | 0.00 | 0.01 | 0.00 | 87 | 1014.2 |
| 20260507171315 | 71 | 338 | 1.0 | 5.0 | 0.00 | 0.01 | 0.00 | 87 | 1014.3 |
| 20260507170812 | 71 | 299 | 1.0 | 7.0 | 0.00 | 0.01 | 0.00 | 87 | 1014.3 |
| 20260507170328 | 71 | 302 | 2.0 | 7.0 | 0.00 | 0.01 | 0.00 | 86 | 1014.3 |
| 20260507165803 | 71 | 304 | 1.0 | 6.0 | 0.00 | 0.01 | 0.00 | 85 | 1014.4 |
| 20260507165319 | 72 | 311 | 2.0 | 6.0 | 0.00 | 0.01 | 0.00 | 85 | 1014.3 |
| 20260507164815 | 71 | 304 | 2.0 | 5.0 | 0.00 | 0.01 | 0.00 | 85 | 1014.3 |
| 20260507164310 | 72 | 20 | 1.0 | 5.0 | 0.00 | 0.01 | 0.00 | 86 | 1014.2 |
| 20260507163807 | 71 | 338 | 2.0 | 5.0 | 0.00 | 0.01 | 0.00 | 86 | 1014.3 |
| 20260507163303 | 71 | 313 | 0.0 | 4.0 | 0.00 | 0.01 | 0.00 | 87 | 1014.2 |
| 20260507162819 | 71 | 313 | 0.0 | 4.0 | 0.00 | 0.01 | 0.00 | 86 | 1014.3 |
| 20260507162316 | 71 | 334 | 1.0 | 5.0 | 0.00 | 0.01 | 0.00 | 87 | 1014.2 |
| 20260507161813 | 71 | 306 | 1.0 | 5.0 | 0.00 | 0.01 | 0.00 | 87 | 1014.2 |
| 20260507161309 | 71 | 298 | 1.0 | 6.0 | 0.00 | 0.01 | 0.01 | 88 | 1014.1 |
| 20260507160805 | 71 | 286 | 1.0 | 6.0 | 0.00 | 0.01 | 0.01 | 88 | 1014.2 |
| 20260507160321 | 71 | 300 | 0.0 | 4.0 | 0.00 | 0.01 | 0.01 | 89 | 1014.3 |
| 20260507155818 | 71 | 300 | 0.0 | 6.0 | 0.00 | 0.01 | 0.01 | 88 | 1014.2 |
| 20260507155330 | 71 | 286 | 2.0 | 6.0 | 0.00 | 0.01 | 0.01 | 88 | 1014.3 |
| 20260507154805 | 71 | 304 | 0.0 | 4.0 | 0.00 | 0.01 | 0.01 | 88 | 1014.2 |
| 20260507154322 | 71 | 302 | 2.0 | 5.0 | 0.00 | 0.01 | 0.01 | 88 | 1014.3 |
| 20260507153836 | 71 | 331 | 0.0 | 6.0 | 0.00 | 0.01 | 0.01 | 88 | 1014.2 |
| 20260507153310 | 71 | 270 | 1.0 | 6.0 | 0.00 | 0.01 | 0.01 | 88 | 1014.2 |
| 20260507152808 | 71 | 305 | 1.0 | 4.0 | 0.00 | 0.01 | 0.01 | 88 | 1014.1 |
| 20260507152306 | 71 | 307 | 1.0 | 4.0 | 0.00 | 0.01 | 0.01 | 88 | 1014.1 |
| 20260507151813 | 72 | 300 | 1.0 | 6.0 | 0.00 | 0.01 | 0.01 | 88 | 1014.1 |
| 20260507151310 | 72 | 302 | 1.0 | 6.0 | 0.00 | 0.01 | 0.01 | 88 | 1014.2 |
| 20260507150824 | 72 | 298 | 0.0 | 6.0 | 0.00 | 0.01 | 0.01 | 88 | 1014.2 |
| 20260507150318 | 72 | 319 | 0.0 | 6.0 | 0.00 | 0.01 | 0.01 | 88 | 1014.2 |
| 20260507145814 | 72 | 310 | 2.0 | 6.0 | 0.00 | 0.01 | 0.01 | 87 | 1014.2 |
| 20260507145309 | 72 | 315 | 2.0 | 5.0 | 0.00 | 0.01 | 0.01 | 88 | 1014.1 |
| 20260507144805 | 72 | 292 | 1.0 | 6.0 | 0.00 | 0.01 | 0.01 | 88 | 1014.1 |
| 20260507144322 | 73 | 289 | 1.0 | 6.0 | 0.00 | 0.01 | 0.01 | 88 | 1014.0 |
| 20260507143838 | 73 | 302 | 1.0 | 4.0 | 0.01 | 0.01 | 0.01 | 88 | 1013.9 |
| 20260507143313 | 73 | 292 | 1.0 | 5.0 | 0.01 | 0.01 | 0.01 | 88 | 1013.9 |
| 20260507142808 | 73 | 280 | 2.0 | 5.0 | 0.01 | 0.01 | 0.01 | 88 | 1013.9 |
| 20260507142306 | 73 | 292 | 2.0 | 5.0 | 0.01 | 0.01 | 0.01 | 88 | 1013.8 |
| 20260507141820 | 73 | 323 | 0.0 | 4.0 | 0.01 | 0.01 | 0.01 | 89 | 1013.9 |
| 20260507141316 | 73 | 303 | 0.0 | 4.0 | 0.01 | 0.01 | 0.01 | 89 | 1013.8 |
| 20260507140813 | 73 | 286 | 0.0 | 8.0 | 0.01 | 0.01 | 0.01 | 89 | 1013.7 |
| 20260507140309 | 73 | 293 | 2.0 | 8.0 | 0.01 | 0.01 | 0.01 | 89 | 1013.7 |
| 20260507135806 | 73 | 319 | 1.0 | 6.0 | 0.01 | 0.01 | 0.01 | 88 | 1013.7 |
| 20260507135321 | 73 | 307 | 4.0 | 6.0 | 0.01 | 0.01 | 0.01 | 88 | 1013.6 |
| 20260507134819 | 74 | 312 | 2.0 | 11.0 | 0.01 | 0.01 | 0.01 | 87 | 1013.7 |
| 20260507134314 | 74 | 297 | 3.0 | 11.0 | 0.01 | 0.01 | 0.01 | 87 | 1013.7 |
| 20260507133810 | 74 | 263 | 2.0 | 11.0 | 0.00 | 0.00 | 0.00 | 86 | 1013.7 |
| 20260507133307 | 75 | 301 | 4.0 | 10.0 | 0.00 | 0.00 | 0.00 | 85 | 1013.5 |
| 20260507132823 | 76 | 308 | 4.0 | 8.0 | 0.00 | 0.00 | 0.00 | 83 | 1013.3 |
| 20260507132320 | 78 | 331 | 4.0 | 8.0 | 0.00 | 0.00 | 0.00 | 83 | 1013.2 |
| 20260507131818 | 78 | 110 | 2.0 | 6.0 | 0.00 | 0.00 | 0.00 | 85 | 1013.0 |
| 20260507131314 | 78 | 196 | 1.0 | 8.0 | 0.00 | 0.00 | 0.00 | 85 | 1013.0 |
| 20260507130809 | 78 | 194 | 0.0 | 3.0 | 0.00 | 0.00 | 0.00 | 85 | 1013.0 |
| 20260507130306 | 78 | 242 | 0.0 | 5.0 | 0.00 | 0.00 | 0.00 | 85 | 1013.1 |
| 20260507125804 | 78 | 216 | 0.0 | 5.0 | 0.00 | 0.00 | 0.00 | 85 | 1013.0 |
| 20260507125319 | 78 | 40 | 0.0 | 5.0 | 0.00 | 0.00 | 0.00 | 85 | 1013.0 |
| 20260507124816 | 78 | 195 | 1.0 | 3.0 | 0.00 | 0.00 | 0.00 | 85 | 1012.9 |
| 20260507124333 | 78 | 198 | 0.0 | 3.0 | 0.00 | 0.00 | 0.00 | 86 | 1012.8 |
| 20260507123825 | 78 | 204 | 0.0 | 3.0 | 0.00 | 0.00 | 0.00 | 86 | 1012.7 |
| 20260507123321 | 78 | 211 | 1.0 | 3.0 | 0.00 | 0.00 | 0.00 | 86 | 1012.6 |
| 20260507122818 | 78 | 151 | 1.0 | 4.0 | 0.00 | 0.00 | 0.00 | 86 | 1012.5 |
| 20260507122315 | 78 | 211 | 1.0 | 6.0 | 0.00 | 0.00 | 0.00 | 86 | 1012.6 |
| 20260507121809 | 78 | 260 | 1.0 | 6.0 | 0.00 | 0.00 | 0.00 | 86 | 1012.6 |
| 20260507121306 | 78 | 302 | 0.0 | 3.0 | 0.00 | 0.00 | 0.00 | 86 | 1012.6 |
| 20260507120803 | 78 | 209 | 1.0 | 3.0 | 0.00 | 0.00 | 0.00 | 86 | 1012.5 |
| 20260507120320 | 78 | 265 | 0.0 | 2.0 | 0.00 | 0.00 | 0.00 | 86 | 1012.4 |
| 20260507115836 | 78 | 193 | 1.0 | 2.0 | 0.00 | 0.00 | 0.00 | 86 | 1012.3 |
| 20260507115311 | 78 | 207 | 0.0 | 4.0 | 0.00 | 0.00 | 0.00 | 86 | 1012.3 |
| 20260507114807 | 78 | 207 | 1.0 | 4.0 | 0.00 | 0.00 | 0.00 | 86 | 1012.1 |
| 20260507114304 | 78 | 206 | 0.0 | 3.0 | 0.00 | 0.00 | 0.00 | 86 | 1012.0 |
| 20260507113819 | 78 | 219 | 0.0 | 4.0 | 0.00 | 0.00 | 0.00 | 86 | 1012.0 |
| 20260507113315 | 78 | 178 | 1.0 | 4.0 | 0.00 | 0.00 | 0.00 | 86 | 1011.9 |
| 20260507112813 | 78 | 193 | 0.0 | 5.0 | 0.00 | 0.00 | 0.00 | 86 | 1011.9 |
| 20260507112310 | 78 | 189 | 2.0 | 4.0 | 0.00 | 0.00 | 0.00 | 86 | 1011.8 |
| 20260507111807 | 78 | 238 | 1.0 | 4.0 | 0.00 | 0.00 | 0.00 | 86 | 1011.7 |
| 20260507111304 | 78 | 175 | 1.0 | 4.0 | 0.00 | 0.00 | 0.00 | 85 | 1011.6 |
| 20260507110820 | 78 | 200 | 0.0 | 6.0 | 0.00 | 0.00 | 0.00 | 85 | 1011.5 |
| 20260507110338 | 78 | 213 | 1.0 | 4.0 | 0.00 | 0.00 | 0.00 | 85 | 1011.4 |
| 20260507105813 | 78 | 223 | 1.0 | 6.0 | 0.00 | 0.00 | 0.00 | 85 | 1011.3 |
| 20260507105310 | 78 | 192 | 3.0 | 6.0 | 0.00 | 0.00 | 0.00 | 85 | 1011.3 |
| 20260507104807 | 78 | 261 | 2.0 | 6.0 | 0.00 | 0.00 | 0.00 | 85 | 1011.4 |
| 20260507104323 | 78 | 176 | 1.0 | 5.0 | 0.00 | 0.00 | 0.00 | 84 | 1011.4 |
| 20260507103837 | 78 | 137 | 0.0 | 5.0 | 0.00 | 0.00 | 0.00 | 84 | 1011.3 |
| 20260507103313 | 78 | 336 | 0.0 | 3.0 | 0.00 | 0.00 | 0.00 | 84 | 1011.3 |
| 20260507102810 | 78 | 190 | 1.0 | 3.0 | 0.00 | 0.00 | 0.00 | 84 | 1011.3 |
| 20260507102307 | 78 | 246 | 1.0 | 3.0 | 0.00 | 0.00 | 0.00 | 84 | 1011.3 |
| 20260507101821 | 78 | 238 | 1.0 | 5.0 | 0.00 | 0.00 | 0.00 | 84 | 1011.2 |
| 20260507101334 | 78 | 196 | 2.0 | 5.0 | 0.00 | 0.00 | 0.00 | 84 | 1011.0 |
| 20260507100810 | 78 | 182 | 1.0 | 4.0 | 0.00 | 0.00 | 0.00 | 84 | 1011.1 |
| 20260507100308 | 78 | 200 | 0.0 | 5.0 | 0.00 | 0.00 | 0.00 | 84 | 1011.2 |
| 20260507095805 | 78 | 200 | 0.0 | 5.0 | 0.00 | 0.00 | 0.00 | 84 | 1011.2 |
| 20260507095322 | 78 | 197 | 0.0 | 4.0 | 0.00 | 0.00 | 0.00 | 84 | 1011.0 |
| 20260507094820 | 78 | 166 | 1.0 | 3.0 | 0.00 | 0.00 | 0.00 | 84 | 1010.9 |
| 20260507094316 | 78 | 225 | 0.0 | 3.0 | 0.00 | 0.00 | 0.00 | 84 | 1010.9 |
| 20260507093337 | 78 | 190 | 0.0 | 3.0 | 0.00 | 0.00 | 0.00 | 84 | 1010.9 |
| 20260507092812 | 78 | 188 | 1.0 | 4.0 | 0.00 | 0.00 | 0.00 | 84 | 1011.0 |
| 20260507092307 | 78 | 220 | 1.0 | 4.0 | 0.00 | 0.00 | 0.00 | 84 | 1010.9 |
| 20260507091819 | 78 | 295 | 0.0 | 1.0 | 0.00 | 0.00 | 0.00 | 84 | 1010.9 |
| 20260507091315 | 78 | 279 | 0.0 | 5.0 | 0.00 | 0.00 | 0.00 | 84 | 1010.9 |
| 20260507090810 | 78 | 279 | 1.0 | 6.0 | 0.00 | 0.00 | 0.00 | 84 | 1010.9 |
| 20260507090306 | 78 | 228 | 1.0 | 4.0 | 0.00 | 0.00 | 0.00 | 84 | 1011.0 |
| 20260507085822 | 78 | 287 | 1.0 | 4.0 | 0.00 | 0.00 | 0.00 | 84 | 1010.9 |
| 20260507085338 | 78 | 160 | 0.0 | 3.0 | 0.00 | 0.00 | 0.00 | 84 | 1010.9 |
| 20260507084833 | 78 | 209 | 2.0 | 3.0 | 0.00 | 0.00 | 0.00 | 84 | 1010.9 |
| 20260507084309 | 78 | 166 | 0.0 | 7.0 | 0.00 | 0.00 | 0.00 | 84 | 1010.8 |
| 20260507083805 | 78 | 207 | 2.0 | 7.0 | 0.00 | 0.00 | 0.00 | 84 | 1010.8 |
| 20260507083323 | 78 | 186 | 1.0 | 5.0 | 0.00 | 0.00 | 0.00 | 84 | 1010.8 |
| 20260507082840 | 78 | 178 | 1.0 | 5.0 | 0.00 | 0.00 | 0.00 | 84 | 1010.7 |
| 20260507082313 | 78 | 42 | 1.0 | 5.0 | 0.00 | 0.00 | 0.00 | 84 | 1010.9 |
| 20260507081810 | 78 | 313 | 0.0 | 5.0 | 0.00 | 0.00 | 0.00 | 84 | 1010.9 |
| 20260507081307 | 78 | 188 | 2.0 | 5.0 | 0.00 | 0.00 | 0.00 | 84 | 1010.9 |
| 20260507080823 | 78 | 232 | 1.0 | 3.0 | 0.00 | 0.00 | 0.00 | 84 | 1010.9 |
| 20260507080320 | 78 | 275 | 1.0 | 4.0 | 0.00 | 0.00 | 0.00 | 84 | 1011.0 |
| 20260507075837 | 78 | 286 | 2.0 | 6.0 | 0.00 | 0.00 | 0.00 | 84 | 1011.1 |
| 20260507075312 | 78 | 313 | 2.0 | 6.0 | 0.00 | 0.00 | 0.00 | 84 | 1011.0 |
| 20260507074821 | 78 | 248 | 1.0 | 6.0 | 0.00 | 0.00 | 0.00 | 84 | 1011.1 |
| 20260507074317 | 78 | 236 | 0.0 | 3.0 | 0.00 | 0.00 | 0.00 | 84 | 1011.0 |
| 20260507073812 | 78 | 223 | 0.0 | 4.0 | 0.00 | 0.00 | 0.00 | 84 | 1011.2 |
| 20260507073329 | 78 | 159 | 0.0 | 4.0 | 0.00 | 0.00 | 0.00 | 84 | 1011.1 |
| 20260507072805 | 78 | 198 | 2.0 | 6.0 | 0.00 | 0.00 | 0.00 | 84 | 1011.2 |
| 20260507071815 | 78 | 259 | 1.0 | 8.0 | 0.00 | 0.00 | 0.00 | 84 | 1011.1 |
| 20260507071313 | 78 | 224 | 1.0 | 8.0 | 0.00 | 0.00 | 0.00 | 84 | 1011.1 |
| 20260507070808 | 78 | 203 | 3.0 | 8.0 | 0.00 | 0.00 | 0.00 | 84 | 1011.1 |
| 20260507070305 | 78 | 212 | 2.0 | 7.0 | 0.00 | 0.00 | 0.00 | 84 | 1011.0 |
| 20260507065819 | 78 | 216 | 3.0 | 8.0 | 0.00 | 0.00 | 0.00 | 84 | 1011.0 |
| 20260507065315 | 78 | 208 | 2.0 | 8.0 | 0.00 | 0.00 | 0.00 | 84 | 1011.1 |
| 20260507064811 | 78 | 258 | 2.0 | 6.0 | 0.00 | 0.00 | 0.00 | 84 | 1011.1 |
| 20260507064308 | 78 | 186 | 2.0 | 7.0 | 0.00 | 0.00 | 0.00 | 84 | 1011.1 |
| 20260507063824 | 78 | 213 | 1.0 | 7.0 | 0.00 | 0.00 | 0.00 | 84 | 1011.1 |
| 20260507063321 | 78 | 203 | 2.0 | 8.0 | 0.00 | 0.00 | 0.00 | 84 | 1011.1 |
| 20260507062816 | 78 | 165 | 0.0 | 7.0 | 0.00 | 0.00 | 0.00 | 84 | 1011.2 |
| 20260507062313 | 78 | 209 | 2.0 | 8.0 | 0.00 | 0.00 | 0.00 | 84 | 1011.3 |
| 20260507061829 | 79 | 111 | 1.0 | 5.0 | 0.00 | 0.00 | 0.00 | 84 | 1011.1 |
| 20260507061325 | 79 | 169 | 1.0 | 10.0 | 0.00 | 0.00 | 0.00 | 83 | 1011.1 |
| 20260507060820 | 79 | 254 | 2.0 | 10.0 | 0.00 | 0.00 | 0.00 | 83 | 1011.1 |
| 20260507060317 | 79 | 244 | 2.0 | 8.0 | 0.00 | 0.00 | 0.00 | 84 | 1011.2 |
| 20260507055814 | 79 | 211 | 1.0 | 7.0 | 0.00 | 0.00 | 0.00 | 84 | 1011.2 |
| 20260507055310 | 79 | 225 | 2.0 | 8.0 | 0.00 | 0.00 | 0.00 | 84 | 1011.2 |
| 20260507054806 | 79 | 161 | 2.0 | 9.0 | 0.00 | 0.00 | 0.00 | 83 | 1011.2 |
| 20260507054323 | 79 | 200 | 3.0 | 9.0 | 0.00 | 0.00 | 0.00 | 83 | 1011.3 |
| 20260507053839 | 79 | 158 | 3.0 | 9.0 | 0.00 | 0.00 | 0.00 | 83 | 1011.4 |
| 20260507053314 | 79 | 275 | 3.0 | 7.0 | 0.00 | 0.00 | 0.00 | 83 | 1011.2 |